[[{"header":{"parameterUnit":"m.s-1","parameterCategory":1,"la1":30.2991,"la2":30.254,"lo1":-89.0895,"lo2":-89.0444,"dy":0.0017,"dx":0.0017,"nx":28,"ny":28,"refTime":"2025-02-08T03:00:00:Z","depth":0,"parameterNumber":2,"parameterNumberName":"U-component_of_WINDS"},"data":[0,0,0,0,0,0,0,0,0,0,0,0,0,0,0,0,0,0,0,0,0,0,0,0,0,0,0,0,0,0,0,0,0,0,0,0,0,0,0,0,0,0,0,0,0,0,0,0,0,0,0,0,0,0,0,0,0,0,-0.7007,-0.7006,0,-0.6943,-0.6942,-0.6941,-0.6929,-0.693,-0.693,-0.6931,-0.6859,-0.6857,-0.6855,0,0,0,0,0,0,0,0,0,0,0,0,0,-0.7114,-0.7112,-0.7007,-0.7006,-0.7005,-0.6943,-0.6942,-0.6941,-0.6929,-0.693,-0.693,-0.6931,-0.686,-0.6857,-0.6855,0,0,0,0,0,0,0,0,0,0,0,0,0,-0.706,-0.7112,-0.7007,-0.6992,-0.699,-0.6943,-0.6942,-0.6941,-0.6929,-0.693,-0.693,-0.6931,-0.6861,-0.6858,-0.6854,-0.6816,0,0,-0.6843,-0.6842,0,0,0,0,0,0,0,0,-0.7063,-0.7056,-0.6995,-0.6993,-0.6991,-0.6945,-0.6954,-0.6899,-0.6929,-0.6952,-0.6931,-0.6932,-0.6887,-0.6881,-0.6867,-0.6813,-0.681,-0.6843,-0.6841,-0.6839,-0.6838,0,0,0,0,0,0,0,-0.7067,-0.7059,-0.6981,-0.6994,-0.6991,-0.6987,-0.698,-0.6943,-0.6915,-0.695,-0.6949,-0.6942,-0.6886,-0.6871,-0.6865,-0.6809,-0.6843,-0.684,-0.6838,-0.6836,-0.6718,-0.6717,0,0,0,0,0,0,-0.7074,-0.7062,-0.6983,-0.6979,-0.703,-0.6984,-0.6976,-0.6959,-0.6916,-0.691,-0.6941,-0.6941,-0.6876,-0.687,-0.6863,-0.6814,-0.6839,-0.6836,-0.6834,-0.6719,-0.6718,-0.6717,0,0,0,0,0,0,-0.7077,-0.7067,-0.6986,-0.7021,-0.701,-0.6981,-0.6961,-0.6957,-0.6942,-0.6909,-0.6904,-0.6931,-0.6877,-0.6868,-0.6828,-0.6812,-0.6834,-0.6831,-0.672,-0.6719,-0.6717,-0.6718,0,0,0,0,0,0,-0.708,-0.7068,-0.7055,-0.702,-0.7008,-0.6954,-0.696,-0.6955,-0.6936,-0.6936,-0.6899,-0.6893,-0.6877,-0.6833,-0.6824,-0.6807,-0.6828,-0.6721,-0.6719,-0.6718,-0.6719,-0.6716,-0.6714,0,0,0,0,0,-0.7084,-0.7057,-0.7054,-0.7045,-0.6991,-0.6953,-0.6946,-0.6929,-0.6935,-0.692,-0.6899,-0.6894,-0.6815,-0.6829,-0.6819,-0.6801,-0.6722,-0.672,-0.6718,-0.672,-0.6717,-0.6714,0,0,0,0,0,0,-0.7089,-0.7052,-0.7049,-0.701,-0.6985,-0.6951,-0.6932,-0.6926,-0.6897,-0.6898,-0.6877,-0.6869,-0.6829,-0.6811,-0.6827,-0.6761,-0.6769,-0.6764,-0.6774,-0.6771,-0.6768,-0.6773,-0.6825,0,0,0,0,0,-0.7086,-0.7059,-0.7028,-0.6997,-0.6985,-0.6961,-0.6943,-0.6933,-0.6905,-0.6894,-0.687,-0.6841,-0.681,-0.6789,-0.6759,-0.6717,-0.6707,-0.6699,-0.6696,-0.6695,-0.669,-0.6665,-0.666,-0.6709,-0.6709,-0.6709,0,0,-0.7078,-0.7055,-0.7039,-0.6997,-0.6977,-0.6948,-0.6951,-0.6921,-0.6899,-0.6888,-0.6849,-0.6831,-0.6797,-0.6756,-0.6736,-0.6739,-0.6675,-0.6692,-0.6691,-0.6687,-0.6662,-0.6657,-0.6653,-0.6708,-0.6708,-0.6708,0,0,-0.705,-0.7031,-0.7002,-0.6981,-0.695,-0.6934,-0.6927,-0.6894,-0.6882,-0.6842,-0.6833,-0.6806,-0.6753,-0.6729,-0.671,-0.6673,-0.6666,-0.6663,-0.665,-0.6625,-0.6621,-0.6618,-0.6603,-0.6598,-0.6659,-0.6659,-0.6659,0,-0.7044,-0.7003,-0.6988,-0.6958,-0.6939,-0.6929,-0.6899,-0.6879,-0.6839,-0.6825,-0.683,-0.6762,-0.6739,-0.6691,-0.6682,-0.6667,-0.6657,-0.6667,-0.6624,-0.662,-0.6616,-0.6601,-0.6596,-0.6659,-0.6659,-0.6659,-0.6659,0,-0.6996,-0.6968,-0.6948,-0.6911,-0.6889,-0.6859,-0.6838,-0.6818,-0.6809,-0.6792,-0.6751,-0.6724,-0.6687,-0.6675,-0.6666,-0.6625,-0.6627,-0.6628,-0.6636,-0.6612,-0.6597,-0.6592,-0.6659,-0.6659,-0.6659,-0.6659,0,0,-0.6969,-0.6924,-0.6917,-0.6899,-0.6864,-0.684,-0.6809,-0.6775,-0.6757,-0.6729,-0.6701,-0.6657,-0.6657,-0.6635,-0.6623,-0.6602,-0.6572,-0.6605,-0.6603,-0.6598,-0.6523,-0.6521,-0.6515,-0.6568,-0.6567,-0.6566,-0.6525,0,-0.6936,-0.6882,-0.6867,-0.682,-0.6792,-0.6782,-0.6755,-0.6729,-0.6712,-0.6684,-0.6665,-0.6633,-0.6637,-0.6623,-0.6602,-0.658,-0.6556,-0.6583,-0.6539,-0.6538,-0.6546,-0.6508,-0.6506,-0.6469,-0.6519,-0.6518,-0.6518,0,-0.6889,-0.6862,-0.6813,-0.678,-0.6768,-0.6743,-0.671,-0.6684,-0.6654,-0.6643,-0.6619,-0.6609,-0.6574,-0.6585,-0.6535,-0.6553,-0.6535,-0.6521,-0.6519,-0.6513,-0.6525,-0.6499,-0.6457,-0.6451,-0.6509,-0.651,-0.651,0,-0.6872,-0.6823,-0.6787,-0.6772,-0.6734,-0.6716,-0.6699,-0.667,-0.665,-0.662,-0.6606,-0.6572,-0.6553,-0.6526,-0.6506,-0.6516,-0.6458,-0.6467,-0.6446,-0.6446,-0.6432,-0.6433,-0.6385,-0.6423,-0.6423,-0.6423,-0.6423,0,-0.6836,-0.6805,-0.6779,-0.6756,-0.6721,-0.6704,-0.6669,-0.6652,-0.6626,-0.6598,-0.6588,-0.6561,-0.6538,-0.6508,-0.6492,-0.6452,-0.6444,-0.6432,-0.6428,-0.6432,-0.6434,-0.6418,-0.642,-0.6422,-0.6422,-0.6422,-0.6423,0,-0.681,-0.6791,-0.6751,-0.6718,-0.6709,-0.6684,-0.6655,-0.6632,-0.6615,-0.658,-0.6571,-0.6543,-0.6508,-0.6486,-0.644,-0.6429,-0.6385,-0.6382,-0.6395,-0.6393,-0.6372,-0.6374,-0.6311,-0.6301,-0.6348,-0.6347,-0.6347,0,-0.6787,-0.6764,-0.6728,-0.671,-0.6693,-0.6663,-0.6643,-0.6624,-0.6603,-0.6566,-0.6547,-0.6511,-0.6481,-0.6424,-0.6399,-0.6364,-0.6359,-0.634,-0.6353,-0.6358,-0.6356,-0.6357,-0.6354,-0.6337,-0.6336,-0.6336,-0.6336,0,-0.6748,-0.674,-0.6711,-0.6679,-0.6655,-0.6629,-0.6603,-0.6587,-0.6564,-0.654,-0.6505,-0.6482,-0.6435,-0.6399,-0.6361,-0.6341,-0.6334,-0.6332,-0.6325,-0.6328,-0.6336,-0.6329,-0.6387,-0.6333,-0.6333,-0.6333,-0.6334,-0.6334,-0.6722,-0.67,-0.6671,-0.664,-0.6618,-0.6593,-0.657,-0.655,-0.652,-0.6482,-0.6473,-0.6435,-0.6403,-0.6352,-0.6332,-0.63,-0.6303,-0.6293,-0.629,-0.6287,-0.6286,-0.6342,-0.6294,-0.6294,-0.6294,-0.6294,-0.6294,0,-0.668,-0.6662,-0.6633,-0.6596,-0.6571,-0.6568,-0.6538,-0.6517,-0.6484,-0.6456,-0.6427,-0.6385,-0.635,-0.6322,-0.6285,-0.6265,-0.626,-0.6255,-0.6256,-0.6251,-0.6287,-0.6296,-0.626,-0.626,-0.626,-0.626,-0.626,-0.626,-0.6656,-0.6618,-0.6606,-0.6557,-0.6538,-0.6502,-0.6485,-0.6461,-0.6439,-0.6393,-0.6364,-0.6347,-0.6318,-0.6279,-0.6246,-0.6238,-0.6224,-0.622,-0.6211,-0.6245,-0.6249,-0.6252,-0.626,-0.6217,-0.6217,-0.6178,-0.6177,-0.6177]},{"header":{"parameterUnit":"m.s-1","parameterCategory":1,"la1":30.2991,"la2":30.254,"lo1":-89.0895,"lo2":-89.0444,"dy":0.0017,"dx":0.0017,"nx":28,"ny":28,"refTime":"2025-02-08T03:00:00:Z","depth":0,"parameterNumber":3,"parameterNumberName":"V-component_of_WINDS"},"data":[0,0,0,0,0,0,0,0,0,0,0,0,0,0,0,0,0,0,0,0,0,0,0,0,0,0,0,0,0,0,0,0,0,0,0,0,0,0,0,0,0,0,0,0,0,0,0,0,0,0,0,0,0,0,0,0,0,0,3.6487,3.6489,0,3.6683,3.6685,3.6687,3.6719,3.6717,3.6715,3.6713,3.6915,3.6922,3.6929,0,0,0,0,0,0,0,0,0,0,0,0,0,3.6141,3.6147,3.6486,3.6489,3.6491,3.6683,3.6685,3.6688,3.6719,3.6717,3.6715,3.6713,3.6913,3.6921,3.6929,0,0,0,0,0,0,0,0,0,0,0,0,0,3.6309,3.6149,3.6486,3.653,3.6536,3.6682,3.6685,3.6689,3.6719,3.6717,3.6714,3.6712,3.691,3.692,3.693,3.7047,0,0,3.6962,3.6967,0,0,0,0,0,0,0,0,3.63,3.6322,3.6521,3.6527,3.6534,3.6674,3.6637,3.6809,3.672,3.665,3.6713,3.671,3.6837,3.6853,3.6896,3.7056,3.7065,3.6963,3.697,3.6974,3.6977,0,0,0,0,0,0,0,3.6288,3.6314,3.6564,3.6524,3.6532,3.6541,3.6562,3.667,3.6755,3.6656,3.6658,3.6681,3.684,3.6885,3.6901,3.7068,3.6963,3.6972,3.6979,3.6983,3.7339,3.7342,0,0,0,0,0,0,3.6268,3.6304,3.6558,3.657,3.6408,3.6549,3.6572,3.6631,3.6754,3.677,3.6683,3.6682,3.6869,3.6888,3.6908,3.7057,3.6974,3.6984,3.699,3.7336,3.734,3.7343,0,0,0,0,0,0,3.6261,3.6291,3.655,3.6438,3.6472,3.6558,3.6624,3.6637,3.6682,3.6775,3.6791,3.6714,3.6868,3.6893,3.7013,3.7064,3.6989,3.6998,3.7332,3.7337,3.7342,3.7352,0,0,0,0,0,0,3.6251,3.6288,3.6332,3.6439,3.6477,3.6652,3.6627,3.6642,3.67,3.6701,3.6808,3.6824,3.6867,3.6997,3.7024,3.7077,3.7006,3.7328,3.7335,3.734,3.7348,3.7357,3.7364,0,0,0,0,0,3.6238,3.6326,3.6334,3.6365,3.6535,3.6654,3.6677,3.6725,3.6704,3.6751,3.6811,3.682,3.7053,3.7009,3.7039,3.7096,3.7325,3.7333,3.734,3.7344,3.7355,3.7364,0,0,0,0,0,0,3.6222,3.6341,3.6351,3.6476,3.6555,3.6659,3.6719,3.6735,3.6821,3.6818,3.6875,3.6899,3.7017,3.7068,3.7017,3.7218,3.7188,3.7201,3.7181,3.7192,3.72,3.7187,3.7015,0,0,0,0,0,3.6234,3.632,3.6419,3.652,3.6559,3.6632,3.6686,3.6717,3.6801,3.6835,3.6903,3.6985,3.7078,3.7137,3.7226,3.7354,3.738,3.7408,3.7416,3.7423,3.7435,3.7511,3.7526,3.7367,3.7367,3.7367,0,0,3.6257,3.6333,3.6384,3.6519,3.6584,3.6674,3.666,3.6755,3.6823,3.6849,3.6968,3.7021,3.7117,3.7242,3.7301,3.7289,3.7484,3.7432,3.7436,3.7445,3.752,3.7535,3.7548,3.7372,3.7371,3.737,0,0,3.6348,3.6412,3.6506,3.6572,3.667,3.6719,3.6741,3.6844,3.6881,3.7001,3.7024,3.7106,3.7262,3.733,3.7385,3.7505,3.7519,3.7532,3.7577,3.765,3.7663,3.7674,3.7721,3.7737,3.7543,3.7543,3.7543,0,3.6366,3.6502,3.6551,3.6648,3.6708,3.6735,3.6832,3.6893,3.7016,3.7058,3.7041,3.7241,3.7307,3.7451,3.7481,3.7523,3.7553,3.7522,3.7657,3.7669,3.768,3.7726,3.7743,3.7544,3.7544,3.7544,3.7544,0,3.6521,3.6616,3.6679,3.6799,3.6866,3.6961,3.7026,3.7088,3.7114,3.7164,3.7288,3.7368,3.7477,3.7512,3.7537,3.7662,3.7652,3.7645,3.7617,3.7696,3.774,3.7757,3.7546,3.7546,3.7545,3.7545,0,0,3.6608,3.6756,3.6779,3.6835,3.6947,3.7022,3.7119,3.7226,3.728,3.7364,3.745,3.7582,3.7579,3.7641,3.7674,3.7738,3.7833,3.7725,3.7728,3.7746,3.7981,3.7987,3.8007,3.7841,3.7845,3.7848,3.7974,0,3.6716,3.6891,3.694,3.7089,3.7179,3.7208,3.7294,3.7372,3.7423,3.7507,3.7562,3.7658,3.7643,3.7682,3.7746,3.7808,3.7882,3.7799,3.7925,3.7929,3.7904,3.8029,3.8036,3.8151,3.7991,3.7994,3.7996,0,3.6864,3.6954,3.7112,3.7217,3.7256,3.7332,3.7436,3.7515,3.7606,3.7639,3.771,3.7738,3.7843,3.7806,3.7954,3.7897,3.7951,3.7989,3.7995,3.8011,3.797,3.8053,3.8189,3.8208,3.8023,3.802,3.8019,0,3.6918,3.7077,3.7194,3.724,3.7364,3.7417,3.7471,3.756,3.7622,3.7712,3.7754,3.7854,3.791,3.7989,3.8044,3.8011,3.8188,3.8155,3.8221,3.822,3.8259,3.8257,3.841,3.8287,3.8287,3.8287,3.8286,0,3.7035,3.7132,3.722,3.7292,3.7403,3.7458,3.7566,3.7621,3.77,3.7785,3.7814,3.7893,3.7959,3.8047,3.8091,3.8209,3.8233,3.8264,3.8275,3.8264,3.8261,3.8303,3.8298,3.8291,3.829,3.8289,3.8289,0,3.7114,3.7177,3.7307,3.7414,3.7443,3.752,3.7612,3.7684,3.7735,3.7843,3.7871,3.7952,3.8058,3.812,3.8253,3.8282,3.8415,3.842,3.8385,3.8391,3.8455,3.845,3.8644,3.8674,3.8527,3.8528,3.8529,0,3.7187,3.7263,3.7379,3.7438,3.7493,3.7587,3.7652,3.7709,3.7775,3.7886,3.7946,3.8054,3.8143,3.8312,3.8383,3.8486,3.8497,3.8558,3.8513,3.8501,3.8504,3.85,3.851,3.8567,3.8568,3.8569,3.857,0,3.7311,3.7339,3.7431,3.7534,3.7611,3.7695,3.7778,3.7825,3.7896,3.7969,3.8079,3.8149,3.8286,3.8394,3.8504,3.856,3.8579,3.8583,3.8605,3.8596,3.8575,3.8592,3.8411,3.8579,3.8578,3.8578,3.8577,3.8577,3.7393,3.7463,3.7557,3.7659,3.7728,3.7807,3.7881,3.7943,3.8035,3.8152,3.8179,3.8296,3.8388,3.8537,3.8596,3.8689,3.8679,3.8709,3.8717,3.8725,3.8729,3.8556,3.8708,3.8708,3.8708,3.8708,3.8708,0,3.7523,3.7584,3.7678,3.7795,3.7876,3.7885,3.7979,3.8047,3.8149,3.8233,3.8322,3.8449,3.8555,3.8635,3.8744,3.8803,3.8814,3.883,3.8828,3.8842,3.873,3.8702,3.8819,3.8819,3.8819,3.8819,3.8819,3.8819,3.76,3.7721,3.776,3.7917,3.7979,3.8093,3.8147,3.822,3.8288,3.843,3.8518,3.8569,3.8653,3.8769,3.8867,3.8888,3.8929,3.8944,3.8967,3.8861,3.8849,3.8838,3.8813,3.8951,3.8951,3.9072,3.9073,3.9074]}]]